Lexington Weather

Lexington, Massachusetts, USA

34°F
4/16/2021 10:25am 
  • Lexington Conditions: Snow, Fog, Overcast
  • Temperature: 34.0°F / 1.1°CColder 0.2°F than last hour.
  • Dew Point: 32.7°FDecreased 0.2°Fsince last hour.
  • Relative Humidity: 95
  • Wind: Calm, 10-min avg: Calm, gust: None
  • Barometer: 29.49 in Steady
  • Visibility: ½ mile
  • Snow Today: 1.3 in
  •   

Regional Weather Roundup
for Boston / Norton, MA

        
000
ASUS41 KBOX 111104
RWRBOX

REGIONAL WEATHER ROUNDUP
NATIONAL WEATHER SERVICE BOSTON/NORTON MA
700 AM EDT SUN APR 11 2021

NOTE:  "FAIR" INDICATES FEW OR NO CLOUDS BELOW 12,000 FEET WITH NO 
SIGNIFICANT WEATHER AND/OR OBSTRUCTIONS TO VISIBILITY.

MAZALL-111200-
EASTERN MASSACHUSETTS
  
CITY           SKY/WX    TMP DP  RH WIND       PRES   REMARKS
BOSTON         CLOUDY    48  44  86 N15       29.78R                  
BEVERLY        NOT AVBL                                               
LAWRENCE       CLOUDY    46  44  93 NE9       29.80R                  
BEDFORD        CLOUDY    49  46  90 E6        29.77R                  
BLUE HILL        N/A     45  44  97 NE9       29.75R                  
NORWOOD        CLOUDY    50  46  86 NE7       29.77R                  
MARSHFIELD     FOG       46  46 100 VRB6G16   29.77R VSB 1/4          
PLYMOUTH       CLOUDY    49  46  90 N10       29.74R                  
TAUNTON        CLOUDY    52  51  97 VRB7      29.74R                  
NEW BEDFORD    CLOUDY    53  53 100 N5        29.73S FOG              
$$

MAZALL-111200-
CAPE COD AND THE ISLANDS
  
CITY           SKY/WX    TMP DP  RH WIND       PRES   REMARKS
FALMOUTH       FOG       48  50 100 NE5       29.74R VSB 0            
HYANNIS        CLOUDY    47  45  93 NW10      29.73R FOG              
CHATHAM        CLOUDY    52  50  93 W7        29.74R FOG              
PROVINCETOWN   LGT RAIN  44  44 100 MISG        N/A  VSB 1/4          
NANTUCKET      FOG       52  52 100 NW8       29.73R VSB 1/4          
MARTHAS VNYRD  FOG       52  52 100 NW7       29.73R VSB 1/2          
$$
 
MAZALL-111200-
CENTRAL AND WESTERN MASSACHUSETTS
  
CITY           SKY/WX    TMP DP  RH WIND       PRES   REMARKS
WORCESTER      CLOUDY    54  50  86 NE9       29.74R                  
FITCHBURG      CLOUDY    50  48  93 NE6       29.77R                  
ORANGE         MOCLDY    50  48  93 N3        29.74R                  
SPRINGFIELD    CLOUDY    53  53 100 CALM      29.70R                  
WESTFIELD      PTCLDY    49  49 100 CALM      29.71R                  
NORTH ADAMS    PTCLDY    50  47  89 E3        29.69S                  
PITTSFIELD     FOG       48  47  96 CALM      29.69S VSB 1/2          
$$
 
RIZALL-111200-
RHODE ISLAND
  
CITY           SKY/WX    TMP DP  RH WIND       PRES   REMARKS
PROVIDENCE     CLOUDY    53  52  96 E6        29.73R FOG              
NEWPORT        FOG       52  52 100 CALM      29.72R VSB<1/4          
BLOCK ISLAND   FOG       51  51 100 CALM      29.73S VSB 1/4          
SMITHFIELD     PTCLDY    52  52 100 E6        29.73S                  
WESTERLY       FOG       51  51 100 CALM      29.71F VSB 1/4          
$$
 
CTZALL-111200-
CONNECTICUT
  
CITY           SKY/WX    TMP DP  RH WIND       PRES   REMARKS
BRADLEY INTL   FOG       52  51  97 S3        29.70S VSB 1/8          
HARTFORD       FOG       54  52  93 CALM      29.70S VSB 3/4          
BRIDGEPORT     FOG       50  49  96 E5        29.69F VSB<1/4          
DANBURY        FOG       54  52  93 E5        29.70S VSB 1/4          
GROTON         FOG       51  51 100 CALM      29.71S VSB 1            
NEW HAVEN      FOG       53  52  96 CALM      29.70S VSB 1/4          
CHESTER        FOG       52  52 100 CALM      29.71S VSB<1/4          
MERIDEN        FOG       53  52  96 CALM      29.70S VSB 1/4          
WILLIMANTIC    FOG       51  51 100 CALM      29.72S VSB 1/4          
OXFORD         FOG       49  49 100 E3        29.70S VSB 1/4          
$$

MEZ002-015-021-024-NHZ003-005-008-011-012-014-VTZ005-008-111200-
NORTHERN NEW ENGLAND
  
CITY           SKY/WX    TMP DP  RH WIND       PRES   REMARKS
PORTLAND ME    PTCLDY    43  38  82 N5        29.82R                  
BANGOR ME      CLOUDY    40  34  79 E8        29.85S                  
CONCORD NH     CLOUDY    47  42  83 NE9       29.78R                  
MANCHESTER NH  CLOUDY    50  44  80 NE10      29.77R                  
NASHUA NH      CLOUDY    49  49 100 NE7       29.79R                  
PORTSMOUTH NH  MOCLDY    45  36  70 NE6       29.81R                  
JAFFREY NH     CLOUDY    51  48  89 VRB5      29.76R                  
KEENE NH       MOCLDY    47  47 100 N3        29.74S                  
BURLINGTON VT  MOCLDY    48  42  80 NW7       29.71R                  
MT. WASHINGTON PTCLDY    41  28  60 NW26        N/A  WCI  30          
$$

NYZ052-076-111200-
EASTERN NEW YORK
  
CITY           SKY/WX    TMP DP  RH WIND       PRES   REMARKS
ALBANY         CLOUDY    53  51  93 CALM      29.68R                  
NEW YORK CITY  FOG       53  52  96 NE3       29.68S VSB 1/4          
$$
 
ANZALL-111200-
MARINE OBSERVATIONS
  
STATION/POSITION TIME  TEMP    WIND        PRES    VSBY  WAVE
                       AIR SEA DIR/SP/G                  HT/PER
                 (UTC) (F)     (DEG/KT/KT) (MB)    (MI)  (FT/S)
BOSTON BUOY      1050   44 45   10/ 16/ 19 1008.4R         3/ 9
BUZZARDS BAY     1000          230/  8/  9 1007.3R
NANTUCKET SOUND  1040      46                N/A
MASS BAY-STELLWA NOT AVBL
ISLE OF SHOALS   1000   43      30/ 25/ 27 1007.1R
S OF BLOCK IS    1026      46                N/A           3/10
$$

......................KEY.........................
  SKY/WX - SKY CONDITION/PRESENT WEATHER
  TMP    - TEMPERATURE IN FAHRENHEIT
  DWPT   - DEWPOINT IN FAHRENHEIT
  RH     - RELATIVE HUMIDITY IN PERCENT
  WIND   - DIRECTION AND SPEED IN MPH
  PRES   - MEAN SEA LEVEL PRESSURE IN INCHES OF HG
  WCI    - WIND CHILL INDEX
  VSB    - VISIBILITY IN MILES
  HX     - HEAT INDEX
  TC     - TEMPERATURE IN CELSIUS
  VRB    - VARIABLE WIND DIRECTION
  N/A    - NOT AVAILABLE
  
      

Other recent Regional Weather Roundups

Fri Apr 16, 10:05am

Fri Apr 16, 9:04am

Fri Apr 16, 8:04am

Fri Apr 16, 7:04am

Fri Apr 16, 6:04am

Fri Apr 16, 5:04am

Fri Apr 16, 4:04am

Fri Apr 16, 3:04am

Fri Apr 16, 2:04am

Fri Apr 16, 1:04am

Fri Apr 16, 12:04am

Thu Apr 15, 11:05pm

Thu Apr 15, 10:04pm

Thu Apr 15, 9:04pm

Thu Apr 15, 8:04pm

Thu Apr 15, 7:05pm

Thu Apr 15, 6:04pm

Thu Apr 15, 5:05pm

Thu Apr 15, 4:04pm

Thu Apr 15, 3:05pm

Thu Apr 15, 2:04pm

Thu Apr 15, 1:05pm

Thu Apr 15, 12:04pm

Thu Apr 15, 11:04am

Thu Apr 15, 10:05am

Thu Apr 15, 9:04am

Thu Apr 15, 8:04am

Thu Apr 15, 7:04am

Thu Apr 15, 6:04am

Thu Apr 15, 5:04am

Thu Apr 15, 4:04am

Thu Apr 15, 3:04am

Thu Apr 15, 2:04am

Thu Apr 15, 1:04am

Thu Apr 15, 12:04am

Wed Apr 14, 11:04pm

Wed Apr 14, 10:04pm

Wed Apr 14, 9:04pm

Wed Apr 14, 8:04pm

Wed Apr 14, 7:04pm

Wed Apr 14, 6:04pm

Wed Apr 14, 5:05pm

Wed Apr 14, 4:04pm

Wed Apr 14, 3:05pm

Wed Apr 14, 2:04pm

Wed Apr 14, 1:05pm

Wed Apr 14, 12:04pm

Wed Apr 14, 11:04am

Wed Apr 14, 10:04am

Wed Apr 14, 9:04am

Wed Apr 14, 8:04am

Wed Apr 14, 7:04am

Wed Apr 14, 6:04am

Wed Apr 14, 5:04am

Wed Apr 14, 4:04am

Wed Apr 14, 3:04am

Wed Apr 14, 2:04am

Wed Apr 14, 1:04am

Wed Apr 14, 12:04am

Tue Apr 13, 11:04pm

Tue Apr 13, 10:05pm

Tue Apr 13, 9:05pm

Tue Apr 13, 8:05pm

Tue Apr 13, 7:04pm

Tue Apr 13, 6:04pm

Tue Apr 13, 5:05pm

Tue Apr 13, 4:04pm

Tue Apr 13, 3:04pm

Tue Apr 13, 2:05pm

Tue Apr 13, 1:04pm

Tue Apr 13, 12:05pm

Tue Apr 13, 11:05am

Tue Apr 13, 10:04am

Tue Apr 13, 9:04am

Tue Apr 13, 8:04am

Tue Apr 13, 7:04am

Tue Apr 13, 6:04am

Tue Apr 13, 5:04am

Tue Apr 13, 4:04am

Tue Apr 13, 3:04am

Tue Apr 13, 2:04am

Tue Apr 13, 1:04am

Tue Apr 13, 12:05am

Mon Apr 12, 11:04pm

Mon Apr 12, 10:04pm

Mon Apr 12, 9:04pm

Mon Apr 12, 8:04pm

Mon Apr 12, 7:05pm

Mon Apr 12, 6:04pm

Mon Apr 12, 5:04pm

Mon Apr 12, 4:04pm

Mon Apr 12, 3:05pm

Mon Apr 12, 2:04pm

Mon Apr 12, 1:05pm

Mon Apr 12, 12:04pm

Mon Apr 12, 11:04am

Mon Apr 12, 10:04am

Mon Apr 12, 9:04am

Mon Apr 12, 8:04am

Mon Apr 12, 7:04am

Mon Apr 12, 6:04am

Mon Apr 12, 5:04am

Mon Apr 12, 4:04am

Mon Apr 12, 3:04am

Mon Apr 12, 2:04am

Mon Apr 12, 1:05am

Mon Apr 12, 12:04am

Sun Apr 11, 11:04pm

Sun Apr 11, 10:04pm

Sun Apr 11, 9:04pm

Sun Apr 11, 8:04pm

Sun Apr 11, 7:04pm

Sun Apr 11, 6:05pm

Sun Apr 11, 5:05pm

Sun Apr 11, 4:04pm

Sun Apr 11, 3:05pm

Sun Apr 11, 2:05pm

Sun Apr 11, 1:05pm

Sun Apr 11, 12:04pm

Sun Apr 11, 11:05am

Sun Apr 11, 10:05am

Sun Apr 11, 9:04am

Sun Apr 11, 8:04am

Sun Apr 11, 6:04am

Sun Apr 11, 5:04am

Sun Apr 11, 4:04am

Sun Apr 11, 3:04am

Sun Apr 11, 2:04am

Sun Apr 11, 1:05am

Sun Apr 11, 12:04am

Sat Apr 10, 11:05pm

Sat Apr 10, 10:04pm

Sat Apr 10, 9:04pm

Sat Apr 10, 8:04pm

Sat Apr 10, 7:05pm

Sat Apr 10, 6:04pm

Sat Apr 10, 5:04pm

Sat Apr 10, 4:04pm

Sat Apr 10, 3:04pm

Sat Apr 10, 2:05pm

Sat Apr 10, 1:04pm

Sat Apr 10, 12:04pm

Sat Apr 10, 11:04am

Sat Apr 10, 10:04am

Sat Apr 10, 9:04am

Sat Apr 10, 8:04am

Sat Apr 10, 7:04am

Sat Apr 10, 6:04am

Sat Apr 10, 5:04am

Sat Apr 10, 4:04am

Sat Apr 10, 3:04am

Sat Apr 10, 2:04am

Sat Apr 10, 1:05am

Sat Apr 10, 12:04am

Fri Apr 9, 11:04pm

Fri Apr 9, 10:05pm

Fri Apr 9, 9:04pm

Fri Apr 9, 8:05pm

Fri Apr 9, 7:05pm

Fri Apr 9, 6:04pm

Fri Apr 9, 5:04pm

Fri Apr 9, 4:05pm

Fri Apr 9, 3:05pm

Fri Apr 9, 2:04pm

Fri Apr 9, 1:04pm

Fri Apr 9, 12:04pm

Fri Apr 9, 11:05am

Meta data:

ID: 5aafc70b-41aa-4ba5-9088-3b88e393e85a
Link: https://api.weather.gov/products/5aafc70b-41aa-4ba5-9088-3b88e393e85a